User: anonymous   Login
Location: Asheville, NC
(35.6000°N, 82.5500°W)
Time: 04:50:10
(UTC-05:00)
Language:

EO-79 - Orbit

View from above orbital plane
View from above orbital plane
View from above satellite
View from above satellite

Ground track
Ground track

The orbit data is extracted from the following two-line orbital elements,

1 40025U 14033R   18022.76076959 +.00000298 +00000-0 +38022-4 0  9992
2 40025 097.9093 298.4325 0011444 308.0812 051.9372 14.88621714194642
Epoch (UTC): 22 January 2018 18:15:30
Eccentricity: 0.0011444
inclination: 97.9093°
perigee height: 594 km
apogee height: 610 km
right ascension of ascending node: 298.4325°
argument of perigee: 308.0812°
revolutions per day: 14.88621714
mean anomaly at epoch: 51.9372°
orbit number at epoch: 19464

The dashed part of the orbit path shows where the satellite is in the earth's shadow,  

DLR